This demonstration page uses our WeatherBlox Daily Observations layout. Learn more.

Left ArrowRight Arrow

38.89511, -77.03637

Hourly Observations for June 20, 2022

Temp ( °F °C ) Dew Point ( °F °C ) Humidity (%) Winds ( mph kmh ) Pressure ( in mb ) Visibility ( mi km ) Precip ( " mm )
12:52 am 00:52 Mostly Cloudy 70 21.1 33 0.6 26 26 NNW 9 15 30.14 1021 10 16 0.00 0.00
1:52 am 01:52 Mostly Cloudy 65 18.3 36 2.2 34 34 NNW 8 13 30.14 1021 10 16 0.00 0.00
2:52 am 02:52 Mostly Cloudy 62 16.7 41 5 46 46 N 9 15 30.16 1021 10 16 0.00 0.00
3:52 am 03:52 Partly Cloudy 61 16.1 39 3.9 44 44 NNW 6 9 30.17 1022 10 16 0.00 0.00
4:52 am 04:52 Partly Cloudy 61 16.1 39 3.9 44 44 NNW 7 11 30.18 1022 10 16 0.00 0.00
5:52 am 05:52 Mostly Sunny 60 15.6 40 4.4 47 47 Calm 30.19 1023 10 16 0.00 0.00
6:52 am 06:52 Mostly Cloudy 62 16.7 42 5.6 48 48 Calm 30.21 1023 10 16 0.00 0.00
7:52 am 07:52 Mostly Cloudy 64 17.8 41 5 43 43 Calm 30.23 1024 10 16 0.00 0.00
8:52 am 08:52 Partly Cloudy 70 21.1 41 5 35 35 Calm 30.23 1024 10 16 0.00 0.00
9:52 am 09:52 Mostly Sunny 74 23.3 38 3.3 27 27 NNW 10 17 30.22 1023 10 16 0.00 0.00
10:52 am 10:52 Partly Cloudy 76 24.4 41 5 29 29 N 8 13 30.21 1023 10 16 0.00 0.00
11:52 am 11:52 Sunny 79 26.1 40 4.4 25 25 WNW 12 19 30.21 1023 10 16 0.00 0.00
12:52 pm 12:52 Partly Cloudy 79 26.1 43 6.1 28 28 NNW 10 17 30.20 1023 10 16 0.00 0.00
1:52 pm 13:52 Partly Cloudy 81 27.2 38 3.3 21 21 NW 9 15 30.19 1022 10 16 0.00 0.00
2:52 pm 14:52 Mostly Sunny 83 28.3 38 3.3 20 20 NNW 13 20 30.18 1022 10 16 0.00 0.00
3:52 pm 15:52 Sunny 83 28.3 40 4.4 22 22 N 13 20 30.16 1022 10 16 0.00 0.00
4:52 pm 16:52 Mostly Cloudy 82 27.8 38 3.3 21 21 WNW 15 24 30.16 1022 10 16 0.00 0.00
5:52 pm 17:52 Mostly Cloudy 80 26.7 38 3.3 22 22 NW 15 24 30.16 1021 10 16 0.00 0.00
6:52 pm 18:52 Mostly Cloudy 79 26.1 43 6.1 28 28 NNW 13 20 30.16 1021 10 16 0.00 0.00
7:52 pm 19:52 Mostly Cloudy 78 25.6 45 7.2 31 31 NNW 5 7 30.14 1021 10 16 0.00 0.00
8:52 pm 20:52 Mostly Cloudy 77 25 46 7.8 33 33 W 6 9 30.13 1020 10 16 0.00 0.00
9:52 pm 21:52 Mostly Cloudy 75 23.9 47 8.3 37 37 WSW 6 9 30.15 1021 10 16 0.00 0.00
10:52 pm 22:52 Mostly Cloudy 74 23.3 49 9.4 41 41 W 7 11 30.16 1021 10 16 0.00 0.00
11:52 pm 23:52 Mostly Cloudy 74 23.3 48 8.9 40 40 NW 9 15 30.17 1022 10 16 0.00 0.00

Powered by AerisWeather